WZZ48FD EDDG-EPKK

Flight info

Callsign WZZ48FD
Flight time 1h 18m
Altitude 33000
Route OSNAD1E/07 OSNAD L980 SAS L986 BOLBO/N0443F310 L986 LASIS T714 MOFKE
Aircraft A320/M-SDE3FGHIRWY/LB1

Departure

Time 2026-05-08 20:41
Airport Münster Osnabrück Airport (EDDG)

Arrival

Time 2026-05-08 21:59
Airport Kraków John Paul II International Airport (EPKK)
Time Latitude Longitude Altitude Speed Heading
2026-05-08 20:09 52.13184 7.69456 168 ft 0 kts 197°
2026-05-08 20:36 52.13182 7.69451 167 ft 0 kts 226°
2026-05-08 20:37 52.13183 7.69437 145 ft 4 kts 274°
2026-05-08 20:37 52.13206 7.69392 167 ft 7 kts 319°
2026-05-08 20:37 52.13255 7.69327 167 ft 11 kts 328°
2026-05-08 20:37 52.13337 7.69274 167 ft 10 kts 341°
2026-05-08 20:38 52.13414 7.69226 167 ft 14 kts 329°
2026-05-08 20:38 52.13414 7.69065 167 ft 17 kts 250°
2026-05-08 20:38 52.13367 7.68856 167 ft 22 kts 251°
2026-05-08 20:38 52.13320 7.68630 168 ft 14 kts 251°
2026-05-08 20:39 52.13284 7.68457 167 ft 18 kts 251°
2026-05-08 20:39 52.13238 7.68237 168 ft 23 kts 251°
2026-05-08 20:39 52.13182 7.67974 167 ft 26 kts 250°
2026-05-08 20:39 52.13133 7.67737 167 ft 23 kts 251°
2026-05-08 20:40 52.13079 7.67492 167 ft 19 kts 251°
2026-05-08 20:40 52.13037 7.67292 167 ft 19 kts 252°
2026-05-08 20:40 52.13068 7.67091 167 ft 18 kts 321°
2026-05-08 20:40 52.13169 7.67075 166 ft 12 kts 53°
2026-05-08 20:41 52.13208 7.67263 165 ft 38 kts 72°
2026-05-08 20:41 52.13380 7.68083 168 ft 112 kts 71°
2026-05-08 20:41 52.13697 7.69583 232 ft 159 kts 69°
2026-05-08 20:41 52.14061 7.71274 878 ft 160 kts 71°
2026-05-08 20:42 52.14422 7.72998 1570 ft 163 kts 73°
2026-05-08 20:42 52.14795 7.74850 1895 ft 182 kts 75°
2026-05-08 20:42 52.15210 7.76906 2211 ft 201 kts 73°
2026-05-08 20:42 52.15689 7.79207 2489 ft 228 kts 72°
2026-05-08 20:43 52.16228 7.81773 2938 ft 249 kts 74°
2026-05-08 20:43 52.16543 7.84577 3742 ft 255 kts 83°
2026-05-08 20:43 52.16776 7.87457 4635 ft 258 kts 82°
2026-05-08 20:43 52.17006 7.90389 5454 ft 264 kts 82°
2026-05-08 20:44 52.17244 7.93399 6229 ft 271 kts 82°
2026-05-08 20:44 52.17491 7.96487 6985 ft 277 kts 82°
2026-05-08 20:44 52.17744 7.99618 7779 ft 281 kts 83°
2026-05-08 20:44 52.17997 8.02789 8591 ft 284 kts 83°
2026-05-08 20:45 52.18252 8.05987 9410 ft 286 kts 84°
2026-05-08 20:45 52.18506 8.09215 10202 ft 289 kts 84°
2026-05-08 20:45 52.18765 8.12531 10618 ft 305 kts 83°
2026-05-08 20:45 52.19043 8.16085 10774 ft 328 kts 84°
2026-05-08 20:46 52.19336 8.19837 11029 ft 345 kts 83°
2026-05-08 20:46 52.19644 8.23751 11564 ft 352 kts 83°
2026-05-08 20:46 52.19955 8.27736 12179 ft 357 kts 83°
2026-05-08 20:46 52.20219 8.31776 12803 ft 361 kts 85°
2026-05-08 20:47 52.20402 8.35878 13415 ft 366 kts 86°
2026-05-08 20:47 52.20541 8.40037 14051 ft 369 kts 87°
2026-05-08 20:47 52.20665 8.44240 14622 ft 373 kts 87°
2026-05-08 20:47 52.20792 8.48479 15185 ft 376 kts 87°
2026-05-08 20:48 52.20928 8.52753 15734 ft 380 kts 86°
2026-05-08 20:48 52.21074 8.57075 16281 ft 383 kts 86°
2026-05-08 20:48 52.21226 8.61421 16851 ft 386 kts 86°
2026-05-08 20:48 52.21383 8.65811 17430 ft 389 kts 86°
2026-05-08 20:49 52.21543 8.70240 17992 ft 393 kts 86°
2026-05-08 20:49 52.21700 8.74712 18555 ft 397 kts 86°
2026-05-08 20:49 52.21854 8.79222 19070 ft 400 kts 86°
2026-05-08 20:49 52.22006 8.83763 19608 ft 403 kts 86°
2026-05-08 20:50 52.22156 8.88349 20154 ft 406 kts 86°
2026-05-08 20:50 52.22306 8.92960 20689 ft 409 kts 86°
2026-05-08 20:50 52.22457 8.97621 21191 ft 413 kts 86°
2026-05-08 20:50 52.22606 9.02309 21688 ft 416 kts 86°
2026-05-08 20:51 52.22755 9.07032 22163 ft 419 kts 86°
2026-05-08 20:51 52.22905 9.11796 22632 ft 421 kts 86°
2026-05-08 20:51 52.23053 9.16584 23089 ft 424 kts 86°
2026-05-08 20:51 52.23198 9.21404 23542 ft 427 kts 86°
2026-05-08 20:52 52.23341 9.26261 23954 ft 430 kts 86°
2026-05-08 20:52 52.23487 9.31146 24324 ft 432 kts 86°
2026-05-08 20:52 52.23634 9.36053 24687 ft 435 kts 86°
2026-05-08 20:52 52.23782 9.40984 25044 ft 437 kts 86°
2026-05-08 20:53 52.23929 9.45944 25401 ft 439 kts 86°
2026-05-08 20:53 52.24076 9.50931 25742 ft 441 kts 86°
2026-05-08 20:53 52.24221 9.55943 26088 ft 443 kts 86°
2026-05-08 20:53 52.24363 9.60972 26432 ft 445 kts 86°
2026-05-08 20:54 52.24503 9.66031 26773 ft 447 kts 86°
2026-05-08 20:54 52.24642 9.71118 27112 ft 450 kts 86°
2026-05-08 20:54 52.24776 9.76217 27446 ft 452 kts 87°
2026-05-08 20:54 52.24907 9.81287 27779 ft 454 kts 87°
2026-05-08 20:55 52.24993 9.86445 28099 ft 456 kts 91°
2026-05-08 20:55 52.24684 9.91606 28423 ft 459 kts 100°
2026-05-08 20:55 52.24045 9.96724 28724 ft 461 kts 102°
2026-05-08 20:55 52.23390 10.01845 29157 ft 460 kts 102°
2026-05-08 20:56 52.22726 10.07026 29618 ft 460 kts 101°
2026-05-08 20:56 52.22077 10.12125 30082 ft 459 kts 101°
2026-05-08 20:56 52.21440 10.17140 30495 ft 458 kts 101°
2026-05-08 20:56 52.20791 10.22214 30876 ft 457 kts 102°
2026-05-08 20:57 52.20139 10.27286 31265 ft 457 kts 102°
2026-05-08 20:57 52.19486 10.32346 31653 ft 456 kts 102°
2026-05-08 20:57 52.18832 10.37402 32044 ft 456 kts 102°
2026-05-08 20:57 52.18180 10.42445 32431 ft 455 kts 102°
2026-05-08 20:58 52.17523 10.47497 32809 ft 455 kts 102°
2026-05-08 20:58 52.16863 10.52534 33123 ft 456 kts 102°
2026-05-08 20:58 52.16197 10.57602 33195 ft 460 kts 102°
2026-05-08 20:59 52.14835 10.67847 33191 ft 464 kts 103°
2026-05-08 20:59 52.13456 10.78124 33192 ft 465 kts 103°
2026-05-08 21:00 52.12080 10.88402 33190 ft 465 kts 103°
2026-05-08 21:00 52.10703 10.98695 33195 ft 466 kts 103°
2026-05-08 21:01 52.09314 11.08988 33199 ft 466 kts 103°
2026-05-08 21:01 52.07913 11.19282 33201 ft 466 kts 103°
2026-05-08 21:02 52.06495 11.29557 33200 ft 466 kts 103°
2026-05-08 21:02 52.05071 11.39835 33192 ft 466 kts 103°
2026-05-08 21:03 52.03641 11.50116 33193 ft 467 kts 103°
2026-05-08 21:03 52.02205 11.60396 33210 ft 467 kts 103°
2026-05-08 21:04 52.00756 11.70670 33210 ft 467 kts 103°
2026-05-08 21:04 51.99286 11.80943 33207 ft 467 kts 104°
2026-05-08 21:05 51.97832 11.91147 33200 ft 468 kts 103°
2026-05-08 21:05 51.96371 12.01422 33198 ft 468 kts 104°
2026-05-08 21:06 51.94898 12.11691 33200 ft 468 kts 104°
2026-05-08 21:06 51.93412 12.21961 33201 ft 468 kts 104°
2026-05-08 21:07 51.91912 12.32219 33194 ft 468 kts 104°
2026-05-08 21:07 51.90391 12.42481 33189 ft 469 kts 104°
2026-05-08 21:08 51.88866 12.52744 33194 ft 469 kts 104°
2026-05-08 21:08 51.87347 12.63017 33194 ft 469 kts 104°
2026-05-08 21:09 51.85818 12.73278 33192 ft 469 kts 104°
2026-05-08 21:09 51.84275 12.83544 33196 ft 470 kts 104°
2026-05-08 21:10 51.82724 12.93800 33192 ft 470 kts 104°
2026-05-08 21:10 51.81946 12.98924 32979 ft 468 kts 104°
2026-05-08 21:10 51.81166 13.04024 32207 ft 468 kts 104°
2026-05-08 21:10 51.80380 13.09137 31506 ft 468 kts 104°
2026-05-08 21:11 51.79575 13.14228 31243 ft 469 kts 107°
2026-05-08 21:11 51.77245 13.23994 31184 ft 467 kts 113°
2026-05-08 21:12 51.74811 13.33686 31196 ft 465 kts 113°
2026-05-08 21:12 51.72408 13.43245 31193 ft 462 kts 113°
2026-05-08 21:13 51.69986 13.52851 31199 ft 464 kts 113°
2026-05-08 21:13 51.67555 13.62449 31113 ft 462 kts 113°
2026-05-08 21:13 51.66337 13.67238 31248 ft 464 kts 113°
2026-05-08 21:14 51.65104 13.72064 31189 ft 468 kts 113°
2026-05-08 21:14 51.62610 13.81776 31198 ft 470 kts 114°
2026-05-08 21:15 51.60107 13.91488 31193 ft 470 kts 114°
2026-05-08 21:15 51.57598 14.01197 31193 ft 470 kts 114°
2026-05-08 21:16 51.55088 14.10896 31193 ft 470 kts 114°
2026-05-08 21:16 51.52566 14.20584 31193 ft 470 kts 114°
2026-05-08 21:17 51.50542 14.30539 30784 ft 470 kts 104°
2026-05-08 21:17 51.49771 14.35696 29427 ft 480 kts 104°
2026-05-08 21:17 51.49003 14.40910 28527 ft 479 kts 104°
2026-05-08 21:17 51.48253 14.46034 28240 ft 465 kts 104°
2026-05-08 21:18 51.47517 14.51038 27964 ft 458 kts 104°
2026-05-08 21:18 51.46785 14.55989 27813 ft 454 kts 104°
2026-05-08 21:18 51.46055 14.60886 27340 ft 449 kts 104°
2026-05-08 21:18 51.45325 14.65757 27147 ft 449 kts 104°
2026-05-08 21:19 51.44593 14.70620 27197 ft 450 kts 104°
2026-05-08 21:19 51.43855 14.75489 27189 ft 450 kts 104°
2026-05-08 21:19 51.43115 14.80362 27190 ft 450 kts 104°
2026-05-08 21:19 51.42369 14.85235 27189 ft 450 kts 104°
2026-05-08 21:20 51.41631 14.90037 27190 ft 450 kts 104°
2026-05-08 21:20 51.40869 14.94897 27183 ft 450 kts 107°
2026-05-08 21:20 51.39811 14.99606 27186 ft 449 kts 113°
2026-05-08 21:20 51.38617 15.04227 27185 ft 450 kts 113°
2026-05-08 21:21 51.37422 15.08851 27186 ft 450 kts 113°
2026-05-08 21:21 51.36224 15.13482 27187 ft 450 kts 113°
2026-05-08 21:21 51.35030 15.18103 27187 ft 450 kts 113°
2026-05-08 21:21 51.34224 15.21220 27187 ft 450 kts 113°
2026-05-08 21:22 51.33023 15.25844 27188 ft 450 kts 114°
2026-05-08 21:22 51.31822 15.30457 27187 ft 450 kts 114°
2026-05-08 21:22 51.30619 15.35074 27188 ft 450 kts 114°
2026-05-08 21:22 51.29416 15.39688 27187 ft 450 kts 114°
2026-05-08 21:23 51.28209 15.44297 27179 ft 450 kts 114°
2026-05-08 21:23 51.26997 15.48907 27183 ft 450 kts 114°
2026-05-08 21:23 51.25782 15.53516 27183 ft 451 kts 114°
2026-05-08 21:23 51.24566 15.58125 27183 ft 451 kts 114°
2026-05-08 21:24 51.23347 15.62731 27172 ft 450 kts 114°
2026-05-08 21:24 51.22128 15.67335 27184 ft 450 kts 114°
2026-05-08 21:24 51.20912 15.71928 27180 ft 450 kts 114°
2026-05-08 21:24 51.19694 15.76524 27184 ft 450 kts 114°
2026-05-08 21:25 51.18473 15.81110 27187 ft 450 kts 114°
2026-05-08 21:25 51.17246 15.85700 27187 ft 450 kts 114°
2026-05-08 21:25 51.16042 15.90223 27187 ft 450 kts 114°
2026-05-08 21:25 51.14841 15.94822 27187 ft 450 kts 114°
2026-05-08 21:26 51.13655 15.99447 27185 ft 450 kts 113°
2026-05-08 21:26 51.12478 16.04067 27184 ft 450 kts 113°
2026-05-08 21:26 51.11298 16.08684 27182 ft 450 kts 113°
2026-05-08 21:26 51.10112 16.13295 27185 ft 450 kts 114°
2026-05-08 21:27 51.08918 16.17905 27186 ft 450 kts 114°
2026-05-08 21:27 51.07722 16.22505 27185 ft 450 kts 114°
2026-05-08 21:27 51.06520 16.27104 27184 ft 450 kts 114°
2026-05-08 21:27 51.05316 16.31704 27181 ft 451 kts 114°
2026-05-08 21:28 51.04111 16.36302 27182 ft 451 kts 114°
2026-05-08 21:28 51.02899 16.40906 27183 ft 451 kts 114°
2026-05-08 21:28 51.01684 16.45498 27187 ft 451 kts 114°
2026-05-08 21:28 51.00467 16.50091 27185 ft 451 kts 114°
2026-05-08 21:29 50.99254 16.54689 27186 ft 451 kts 114°
2026-05-08 21:29 50.98040 16.59288 27188 ft 451 kts 114°
2026-05-08 21:29 50.96826 16.63875 27187 ft 451 kts 114°
2026-05-08 21:29 50.95607 16.68462 27187 ft 451 kts 114°
2026-05-08 21:30 50.94384 16.73054 27184 ft 452 kts 115°
2026-05-08 21:30 50.93160 16.77638 27190 ft 453 kts 115°
2026-05-08 21:30 50.91931 16.82239 27192 ft 453 kts 115°
2026-05-08 21:30 50.90701 16.86832 27190 ft 453 kts 115°
2026-05-08 21:31 50.89469 16.91424 27190 ft 453 kts 115°
2026-05-08 21:31 50.88235 16.96011 27192 ft 453 kts 115°
2026-05-08 21:31 50.87001 17.00595 27192 ft 453 kts 115°
2026-05-08 21:31 50.85764 17.05174 27190 ft 453 kts 115°
2026-05-08 21:32 50.84523 17.09754 27190 ft 453 kts 115°
2026-05-08 21:32 50.83314 17.14361 27188 ft 454 kts 111°
2026-05-08 21:32 50.82304 17.19088 27192 ft 455 kts 110°
2026-05-08 21:32 50.81335 17.23855 27185 ft 455 kts 109°
2026-05-08 21:33 50.80393 17.28628 27188 ft 455 kts 109°
2026-05-08 21:33 50.79454 17.33407 27191 ft 455 kts 109°
2026-05-08 21:33 50.78512 17.38182 27183 ft 455 kts 109°
2026-05-08 21:33 50.77563 17.42945 27187 ft 455 kts 109°
2026-05-08 21:34 50.76600 17.47713 27184 ft 455 kts 109°
2026-05-08 21:34 50.75631 17.52467 27184 ft 455 kts 109°
2026-05-08 21:34 50.74657 17.57225 27173 ft 455 kts 109°
2026-05-08 21:34 50.73685 17.61978 27186 ft 456 kts 110°
2026-05-08 21:35 50.72708 17.66745 27178 ft 456 kts 110°
2026-05-08 21:35 50.71733 17.71504 27180 ft 456 kts 110°
2026-05-08 21:35 50.70758 17.76262 27179 ft 456 kts 110°
2026-05-08 21:35 50.69781 17.81020 27179 ft 456 kts 110°
2026-05-08 21:36 50.68799 17.85776 27179 ft 456 kts 110°
2026-05-08 21:36 50.67813 17.90531 27179 ft 456 kts 110°
2026-05-08 21:36 50.66827 17.95276 27179 ft 456 kts 110°
2026-05-08 21:36 50.65838 18.00023 27179 ft 456 kts 110°
2026-05-08 21:37 50.64845 18.04781 27177 ft 457 kts 110°
2026-05-08 21:37 50.63852 18.09539 27177 ft 458 kts 110°
2026-05-08 21:37 50.62857 18.14300 27177 ft 458 kts 110°
2026-05-08 21:37 50.61862 18.19059 27177 ft 458 kts 110°
2026-05-08 21:38 50.60874 18.23753 27177 ft 458 kts 110°
2026-05-08 21:38 50.59872 18.28505 27177 ft 458 kts 110°
2026-05-08 21:38 50.58864 18.33266 27163 ft 460 kts 111°
2026-05-08 21:38 50.57846 18.38047 27175 ft 462 kts 111°
2026-05-08 21:39 50.56823 18.42847 27172 ft 463 kts 111°
2026-05-08 21:39 50.55797 18.47653 27174 ft 463 kts 111°
2026-05-08 21:39 50.54769 18.52453 27174 ft 463 kts 111°
2026-05-08 21:39 50.53741 18.57252 27174 ft 463 kts 111°
2026-05-08 21:40 50.52713 18.62055 27175 ft 463 kts 111°
2026-05-08 21:40 50.51683 18.66850 27174 ft 463 kts 111°
2026-05-08 21:40 50.50650 18.71643 27174 ft 463 kts 111°
2026-05-08 21:41 50.48594 18.81163 26403 ft 456 kts 111°
2026-05-08 21:41 50.47577 18.85851 25851 ft 452 kts 111°
2026-05-08 21:41 50.46565 18.90506 25293 ft 448 kts 111°
2026-05-08 21:41 50.45564 18.95109 24776 ft 444 kts 111°
2026-05-08 21:42 50.44571 18.99670 24290 ft 440 kts 111°
2026-05-08 21:42 50.43585 19.04181 23829 ft 435 kts 111°
2026-05-08 21:42 50.42603 19.08652 23296 ft 431 kts 111°
2026-05-08 21:42 50.41627 19.13074 22886 ft 425 kts 111°
2026-05-08 21:43 50.40661 19.17436 22346 ft 423 kts 111°
2026-05-08 21:43 50.39698 19.21784 21831 ft 421 kts 111°
2026-05-08 21:43 50.38742 19.26107 21319 ft 419 kts 111°
2026-05-08 21:43 50.37790 19.30418 20796 ft 418 kts 111°
2026-05-08 21:44 50.36839 19.34702 20285 ft 416 kts 111°
2026-05-08 21:44 50.35889 19.38971 19767 ft 414 kts 111°
2026-05-08 21:44 50.34942 19.43224 19244 ft 413 kts 111°
2026-05-08 21:44 50.33996 19.47460 18702 ft 412 kts 111°
2026-05-08 21:45 50.33048 19.51686 18115 ft 411 kts 111°
2026-05-08 21:45 50.32104 19.55891 17547 ft 408 kts 111°
2026-05-08 21:45 50.31162 19.60063 16993 ft 405 kts 111°
2026-05-08 21:45 50.30226 19.64205 16410 ft 403 kts 111°
2026-05-08 21:46 50.29295 19.68322 15844 ft 400 kts 111°
2026-05-08 21:46 50.28369 19.72407 15275 ft 397 kts 111°
2026-05-08 21:46 50.27447 19.76461 14700 ft 395 kts 111°
2026-05-08 21:46 50.26531 19.80489 14133 ft 392 kts 110°
2026-05-08 21:47 50.25623 19.84492 13520 ft 389 kts 110°
2026-05-08 21:47 50.24725 19.88444 13160 ft 380 kts 110°
2026-05-08 21:47 50.23863 19.92236 13018 ft 359 kts 111°
2026-05-08 21:47 50.23055 19.95780 12875 ft 334 kts 111°
2026-05-08 21:48 50.22300 19.99079 12751 ft 312 kts 111°
2026-05-08 21:48 50.21590 20.02169 12617 ft 293 kts 111°
2026-05-08 21:48 50.21025 20.05157 12271 ft 284 kts 100°
2026-05-08 21:48 50.20944 20.08249 11632 ft 288 kts 83°
2026-05-08 21:49 50.21314 20.11327 11009 ft 289 kts 77°
2026-05-08 21:49 50.21735 20.14408 10392 ft 291 kts 78°
2026-05-08 21:49 50.22156 20.17514 9763 ft 293 kts 78°
2026-05-08 21:49 50.22576 20.20629 9104 ft 294 kts 78°
2026-05-08 21:50 50.22998 20.23756 8453 ft 294 kts 78°
2026-05-08 21:50 50.23345 20.26896 7803 ft 292 kts 91°
2026-05-08 21:50 50.22892 20.29914 7178 ft 285 kts 122°
2026-05-08 21:50 50.21576 20.32105 6550 ft 271 kts 152°
2026-05-08 21:51 50.19862 20.33042 5881 ft 256 kts 171°
2026-05-08 21:51 50.18140 20.33579 5214 ft 248 kts 173°
2026-05-08 21:51 50.16501 20.33269 4537 ft 236 kts 209°
2026-05-08 21:51 50.15299 20.31635 4123 ft 228 kts 237°
2026-05-08 21:52 50.14747 20.29346 3991 ft 227 kts 260°
2026-05-08 21:52 50.14439 20.26917 4044 ft 229 kts 258°
2026-05-08 21:52 50.14120 20.24484 4047 ft 230 kts 258°
2026-05-08 21:52 50.13795 20.22057 4018 ft 225 kts 258°
2026-05-08 21:53 50.13482 20.19740 3991 ft 211 kts 258°
2026-05-08 21:53 50.13183 20.17589 3991 ft 198 kts 258°
2026-05-08 21:53 50.12903 20.15610 4059 ft 178 kts 257°
2026-05-08 21:53 50.12650 20.13795 3982 ft 165 kts 258°
2026-05-08 21:54 50.12410 20.12109 3911 ft 155 kts 258°
2026-05-08 21:54 50.12181 20.10495 3890 ft 151 kts 257°
2026-05-08 21:54 50.11958 20.08902 3824 ft 150 kts 258°
2026-05-08 21:54 50.11739 20.07270 3825 ft 154 kts 258°
2026-05-08 21:55 50.11521 20.05658 3795 ft 151 kts 258°
2026-05-08 21:55 50.11304 20.04056 3687 ft 150 kts 259°
2026-05-08 21:55 50.11094 20.02469 3597 ft 150 kts 259°
2026-05-08 21:56 50.10660 19.99267 3170 ft 150 kts 259°
2026-05-08 21:56 50.10437 19.97678 2992 ft 150 kts 259°
2026-05-08 21:56 50.10207 19.96097 2878 ft 146 kts 259°
2026-05-08 21:56 50.09994 19.94537 2681 ft 147 kts 260°
2026-05-08 21:57 50.09794 19.92985 2444 ft 145 kts 261°
2026-05-08 21:57 50.09588 19.91447 2319 ft 146 kts 259°
2026-05-08 21:57 50.09355 19.89912 2092 ft 145 kts 258°
2026-05-08 21:57 50.09135 19.88384 1923 ft 145 kts 261°
2026-05-08 21:58 50.08935 19.86850 1720 ft 144 kts 259°
2026-05-08 21:58 50.08717 19.85328 1525 ft 144 kts 260°
2026-05-08 21:58 50.08521 19.83808 1342 ft 144 kts 258°
2026-05-08 21:58 50.08302 19.82295 1140 ft 143 kts 259°
2026-05-08 21:59 50.08094 19.80782 949 ft 143 kts 258°
2026-05-08 21:59 50.07884 19.79279 804 ft 134 kts 260°
2026-05-08 21:59 50.07719 19.78080 798 ft 93 kts 258°
2026-05-08 21:59 50.07605 19.77282 801 ft 48 kts 256°
2026-05-08 22:00 50.07551 19.76937 802 ft 27 kts 255°
2026-05-08 22:00 50.07456 19.76849 801 ft 19 kts 168°
2026-05-08 22:00 50.07324 19.76899 800 ft 16 kts 151°
2026-05-08 22:00 50.07320 19.77062 800 ft 17 kts 76°
2026-05-08 22:01 50.07342 19.77211 800 ft 0 kts 76°
2026-05-08 22:01 50.07346 19.77236 800 ft 4 kts 76°
2026-05-08 22:01 50.07354 19.77290 800 ft 6 kts 77°
2026-05-08 22:01 50.07367 19.77372 800 ft 9 kts 77°
2026-05-08 22:02 50.07383 19.77482 800 ft 12 kts 78°
2026-05-08 22:02 50.07400 19.77625 800 ft 15 kts 79°
2026-05-08 22:02 50.07426 19.77794 800 ft 17 kts 76°
2026-05-08 22:02 50.07451 19.77989 800 ft 20 kts 79°
2026-05-08 22:03 50.07479 19.78198 800 ft 20 kts 78°
2026-05-08 22:03 50.07513 19.78416 800 ft 21 kts 78°
2026-05-08 22:03 50.07534 19.78583 800 ft 15 kts 79°
2026-05-08 22:03 50.07556 19.78757 800 ft 18 kts 79°
2026-05-08 22:04 50.07583 19.78950 800 ft 17 kts 77°
2026-05-08 22:04 50.07607 19.79103 800 ft 15 kts 77°
2026-05-08 22:04 50.07628 19.79255 800 ft 15 kts 79°
2026-05-08 22:04 50.07650 19.79424 800 ft 17 kts 78°
2026-05-08 22:05 50.07670 19.79586 800 ft 16 kts 78°
2026-05-08 22:05 50.07692 19.79749 800 ft 15 kts 78°
2026-05-08 22:05 50.07689 19.79852 800 ft 9 kts 126°
2026-05-08 22:05 50.07624 19.79899 800 ft 11 kts 168°
2026-05-08 22:06 50.07538 19.79927 800 ft 14 kts 168°
2026-05-08 22:06 50.07453 19.79953 800 ft 9 kts 168°
2026-05-08 22:06 50.07403 19.80020 800 ft 11 kts 107°
2026-05-08 22:06 50.07414 19.80139 800 ft 11 kts 74°